Location: Pallagorio
(39.3000°N, 16.9000°E)
Time: 19:00:40
(UTC+00:00)

SJ 16-02 - Pass Details

Date: 24 January 2021
Orbit: 606 x 616 km, 75.0° (Epoch: 03 March)

Event Time Altitude Azimuth Distance (km) Brightness Sun altitude
Rises 16:29:08 0° 192° (SSW) 2,861 5.3 -5.4°
Reaches altitude 10° 16:31:22 10° 191° (S) 1,960 4.4 -5.8°
Maximum altitude 16:35:44 77° 107° (ESE) 629 1.3 -6.6°
Drops below altitude 10° 16:40:08 10° 20° (NNE) 1,969 3.6 -7.4°
Sets 16:42:22 0° 19° (NNE) 2,876 4.4 -7.8°
